Regional Weather Roundup
Issued by NWS Upton, NY

Current Version | Previous Version | Graphics & Text | Print | Product List | Glossary Off
Versions: 1 2 3 4 5 6 7 8 9 10 11 12 13 14 15 16 17 18 19 20 21 22 23 24 25 26 27 28 29 30 31 32 33 34 35 36 37 38 39 40 41 42 43 44 45 46 47 48 49 50

000
ASUS41 KOKX 270505
RWROKX
REGIONAL WEATHER ROUNDUP
NATIONAL WEATHER SERVICE NEW YORK NY
100 AM EDT WED AUG 27 2014

NOTE: "FAIR" INDICATES FEW OR NO CLOUDS BELOW 12,000 FEET WITH NO
SIGNIFICANT WEATHER AND/OR OBSTRUCTIONS TO VISIBILITY.

NYZ071-072-176-178-NJZ106-104-270600-
NEW YORK CITY METRO AREA


CITY           SKY/WX    TMP DP  RH WIND       PRES   REMARKS
CENTRAL PARK   CLEAR     73  47  39 VRB3      30.10F
LAGUARDIA APRT PTCLDY    73  58  59 SW9       30.07F
KENNEDY INTL   CLEAR     71  63  75 SW9       30.08F
NEWARK/LIBERTY PTCLDY    71  60  68 SW7       30.08F
BRNX BOT. GARD   N/A     72  57  60 E3        30.07F
TETERBORO      CLEAR     71  61  70 SW3       30.07S
$$

NYZ177-179-078>081-270600-
LONG ISLAND NEW YORK

CITY           SKY/WX    TMP DP  RH WIND       PRES   REMARKS
FARMINGDALE    CLEAR     69  62  78 SW5       30.08F
ISLIP          CLEAR     69  61  75 SW6       30.06F
SHIRLEY        CLEAR     68  62  81 SW3       30.08F
WESTHAMPTON    CLEAR     61  58  90 S3        30.08F
MONTAUK POINT    N/A     68  64  87 SW3       30.09F
$$

NYZ052-065-067-270600-
HUDSON VALLEY

CITY           SKY/WX    TMP DP  RH WIND       PRES   REMARKS
WHITE PLAINS   CLEAR     67  63  87 CALM      30.08F
NEWBURGH       CLEAR     70  64  83 W6        30.09R
MONTGOMERY     CLEAR     64  60  87 SW5       30.07F
POUGHKEEPSIE   CLEAR     67  63  87 CALM      30.05F
ALBANY         PTCLDY    70  63  78 S7        30.02F
$$

NJZ001-105-106-008-010-013-015-019>022-104-270600-
NEW JERSEY

CITY           SKY/WX    TMP DP  RH WIND       PRES   REMARKS
NEWARK/LIBERTY PTCLDY    71  60  68 SW7       30.08F
TETERBORO      CLEAR     71  61  70 SW3       30.07S
CALDWELL       CLEAR     70  60  70 CALM      30.09S
MORRISTOWN     CLEAR     66  61  82 CALM      30.08F
SOMERVILLE     CLEAR     65  62  90 CALM      30.07S
LINDEN         FAIR      74  64  69 W3        30.10S
SUSSEX         CLEAR     65  62  90 CALM      30.08F
ANDOVER          N/A     65  64  97 CALM      30.10S
TRENTON        CLEAR     68  60  75 SW3       30.08F
MILLVILLE      CLEAR     61  59  93 CALM      30.08F
ATLANTIC CITY  CLEAR     61  59  93 CALM      30.08F
WRIGHTSTOWN    CLEAR     64  63  97 SW3       30.06F
TOMS RIVER     CLEAR     61  55  82 CALM      30.09F
BELMAR         CLEAR     66  61  82 W5        30.08F
$$

PAZ047>061-062-071-270600-
EASTERN PENNSYLVANIA

CITY           SKY/WX    TMP DP  RH WIND       PRES   REMARKS
PHILADELPHIA   CLEAR     71  63  75 SW3       30.09F
ALLENTOWN      CLEAR     67  62  84 W3        30.09S
SCRANTON       CLEAR     64  59  83 CALM      30.09F
$$

CTZ002-004>006-009-010-012-RIZ004-006-007-MAZ004-011-015-270600-
SOUTHERN NEW ENGLAND
 IN CT

CITY           SKY/WX    TMP DP  RH WIND       PRES   REMARKS
BRADLEY INTL   CLEAR     70  64  81 S10       30.05F
HARTFORD       CLEAR     68  63  84 S3        30.06F
DANBURY        CLEAR     70  61  73 SW7       30.09F
WTRBRY/OXFORD  CLEAR     66  61  82 SW3       30.11S
BRIDGEPORT     CLEAR     73  65  75 SW9       30.07F
MERIDEN        CLEAR     66  63  90 CALM      30.07F
NEW HAVEN      CLEAR     73  65  75 SW6       30.08F
CHESTER        FAIR      66  63  88 SW5       30.09F
GROTON         CLEAR     65  63  93 CALM      30.06F
WILLIMANTIC    CLEAR     65  61  87 CALM      30.08F

 IN RI

CITY           SKY/WX    TMP DP  RH WIND       PRES   REMARKS
PROVIDENCE     CLEAR     65  59  81 SW3       30.07F
BLOCK ISLAND   CLEAR     68  63  83 SW8       30.08F
WESTERLY       CLEAR     67  63  87 CALM      30.08F

 IN MA

CITY           SKY/WX    TMP DP  RH WIND       PRES   REMARKS
BOSTON         CLEAR     69  60  73 SW15      30.04S
WORCESTER      CLEAR     65  61  87 SW10      30.08F
WESTFIELD      CLEAR     67  64  90 S5        30.05F
PROVINCETOWN   CLEAR     66  63  88 MISG      30.06F
NANTUCKET      CLEAR     63  62  97 SW6       30.08F
$$

ANZ330-335-338-340-345-350-353-355-270600-
COASTAL MARINE OBSERVATIONS


STATION/POSITION TIME  SKY/WX   TEMP    WIND        PRES    VSBY  WAVE
                                AIR SEA DIR/SP/G                  HT/PER
                 (UTC)          (F)     (DEG/KT/KT) (MB)    (MI)  (FT/S)
NY HARB ENTRANCE NOT AVBL
4S FIRE IS       NOT AVBL
23SW MTP         0500                                 N/A           3/ 9
HUDSON CANYON    0500            71 73  320/  2/  2 1018.4          4/ 8
EXECUTION ROCKS  0500            74 74  220/ 10/ 12   N/A
WESTERN LI SOUND 0500            73     220/ 10/ 12   N/A           1
CENTRAL LI SOUND 0400            72 74  230/ 10/ 12   N/A           1/ 3
EASTERN LI SOUND 0400            69 69  230/  6/  8   N/A
ROBBINS REEF     0400            72     200/  6/  7   N/A
$$


>>>>>>>>>>>>>>>>>>>>>>>>>>>> KEY <<<<<<<<<<<<<<<<<<<<<<<<<<<
>                                                          <
>     SKY/WX - SKY CONDITION/PRESENT WEATHER               <
>     TMP    - TEMPERATURE IN FAHRENHEIT                   <
>     DP     - DEWPOINT IN FAHRENHEIT                      <
>     RH     - RELATIVE HUMIDITY IN PERCENT                <
>     WIND   - DIRECTION AND SPEED IN MPH                  <
>     PRES   - MEAN SEA LEVEL PRESSURE IN INCHES OF HG     <
>     WCI    - WIND CHILL INDEX                            <
>     VSB    - VISIBILITY IN MILES                         <
>     HX     - HEAT INDEX                                  <
>     TC     - TEMPERATURE IN CELSIUS                      <
>     VRB    - VARIABLE WIND DIRECTION                     <
>                                                          <
>>>>>>>>>>>>>>>>>>>>>>>>>>>> KEY <<<<<<<<<<<<<<<<<<<<<<<<<<<





USA.gov is the U.S. government's official web portal to all federal, state and local government web resources and services.